Year,Month,Day,Hour,Minute,Value (Times are PST for temperature in C)
2012,08,15,00,00,13.90
2012,08,15,00,01,13.90
2012,08,15,00,02,13.90
2012,08,15,00,03,13.90
2012,08,15,00,04,13.90
2012,08,15,00,05,13.90
2012,08,15,00,06,13.90
2012,08,15,00,07,13.90
2012,08,15,00,08,13.90
2012,08,15,00,09,13.90
2012,08,15,00,10,13.80
2012,08,15,00,11,13.80
2012,08,15,00,12,13.80
2012,08,15,00,13,13.80
2012,08,15,00,14,13.80
2012,08,15,00,15,13.80
2012,08,15,00,16,13.80
2012,08,15,00,17,13.80
2012,08,15,00,18,13.80
2012,08,15,00,19,13.80
2012,08,15,00,20,13.80
2012,08,15,00,21,13.70
2012,08,15,00,22,13.70
2012,08,15,00,23,13.70
2012,08,15,00,24,13.80
2012,08,15,00,25,13.80
2012,08,15,00,26,13.80
2012,08,15,00,27,13.80
2012,08,15,00,28,13.80
2012,08,15,00,29,13.80
2012,08,15,00,30,13.80
2012,08,15,00,31,13.80
2012,08,15,00,32,13.80
2012,08,15,00,33,13.80
2012,08,15,00,34,13.80
2012,08,15,00,35,13.80
2012,08,15,00,36,13.80
2012,08,15,00,37,13.80
2012,08,15,00,38,13.80
2012,08,15,00,39,13.80
2012,08,15,00,40,13.80
2012,08,15,00,41,13.80
2012,08,15,00,42,13.80
2012,08,15,00,43,13.80
2012,08,15,00,44,13.80
2012,08,15,00,45,13.80
2012,08,15,00,46,13.80
2012,08,15,00,47,13.80
2012,08,15,00,48,13.80
2012,08,15,00,49,13.80
2012,08,15,00,50,13.80
2012,08,15,00,51,13.80
2012,08,15,00,52,13.80
2012,08,15,00,53,13.80
2012,08,15,00,54,13.80
2012,08,15,00,55,13.80
2012,08,15,00,56,13.80
2012,08,15,00,57,13.80
2012,08,15,00,58,13.80
2012,08,15,00,59,13.80
2012,08,15,01,00,13.80
2012,08,15,01,01,13.80
2012,08,15,01,02,13.80
2012,08,15,01,03,13.80
2012,08,15,01,04,13.80
2012,08,15,01,05,13.80
2012,08,15,01,06,13.80
2012,08,15,01,07,13.90
2012,08,15,01,08,13.90
2012,08,15,01,09,13.90
2012,08,15,01,10,13.90
2012,08,15,01,11,13.80
2012,08,15,01,12,13.80
2012,08,15,01,13,13.80
2012,08,15,01,14,13.80
2012,08,15,01,15,13.80
2012,08,15,01,16,13.80
2012,08,15,01,17,13.80
2012,08,15,01,18,13.80
2012,08,15,01,19,13.80
2012,08,15,01,20,13.70
2012,08,15,01,21,13.70
2012,08,15,01,22,13.60
2012,08,15,01,23,13.60
2012,08,15,01,24,13.60
2012,08,15,01,25,13.50
2012,08,15,01,26,13.50
2012,08,15,01,27,13.50
2012,08,15,01,28,13.50
2012,08,15,01,29,13.50
2012,08,15,01,30,13.50
2012,08,15,01,31,13.50
2012,08,15,01,32,13.50
2012,08,15,01,33,13.40
2012,08,15,01,34,13.40
2012,08,15,01,35,13.40
2012,08,15,01,36,13.40
2012,08,15,01,37,13.40
2012,08,15,01,38,13.40
2012,08,15,01,39,13.40
2012,08,15,01,40,13.40
2012,08,15,01,41,13.40
2012,08,15,01,42,13.40
2012,08,15,01,43,13.40
2012,08,15,01,44,13.40
2012,08,15,01,45,13.40
2012,08,15,01,46,13.40
2012,08,15,01,47,13.40
2012,08,15,01,48,13.40
2012,08,15,01,49,13.40
2012,08,15,01,50,13.40
2012,08,15,01,51,13.40
2012,08,15,01,52,13.40
2012,08,15,01,53,13.40
2012,08,15,01,54,13.40
2012,08,15,01,55,13.40
2012,08,15,01,56,13.40
2012,08,15,01,57,13.40
2012,08,15,01,58,13.40
2012,08,15,01,59,13.40
2012,08,15,02,00,13.40
2012,08,15,02,01,13.40
2012,08,15,02,02,13.40
2012,08,15,02,03,13.40
2012,08,15,02,04,13.40
2012,08,15,02,05,13.40
2012,08,15,02,06,13.40
2012,08,15,02,07,13.40
2012,08,15,02,08,13.40
2012,08,15,02,09,13.40
2012,08,15,02,10,13.40
2012,08,15,02,11,13.40
2012,08,15,02,12,13.40
2012,08,15,02,13,13.40
2012,08,15,02,14,13.40
2012,08,15,02,15,13.40
2012,08,15,02,16,13.40
2012,08,15,02,17,13.40
2012,08,15,02,18,13.40
2012,08,15,02,19,13.40
2012,08,15,02,20,13.40
2012,08,15,02,21,13.40
2012,08,15,02,22,13.40
2012,08,15,02,23,13.40
2012,08,15,02,24,13.40
2012,08,15,02,25,13.40
2012,08,15,02,26,13.40
2012,08,15,02,27,13.40
2012,08,15,02,28,13.40
2012,08,15,02,29,13.40
2012,08,15,02,30,13.40
2012,08,15,02,31,13.30
2012,08,15,02,32,13.30
2012,08,15,02,33,13.30
2012,08,15,02,34,13.40
2012,08,15,02,35,13.40
2012,08,15,02,36,13.40
2012,08,15,02,37,13.40
2012,08,15,02,38,13.40
2012,08,15,02,39,13.40
2012,08,15,02,40,13.30
2012,08,15,02,41,13.30
2012,08,15,02,42,13.30
2012,08,15,02,43,13.30
2012,08,15,02,44,13.30
2012,08,15,02,45,13.30
2012,08,15,02,46,13.30
2012,08,15,02,47,13.30
2012,08,15,02,48,13.30
2012,08,15,02,49,13.30
2012,08,15,02,50,13.30
2012,08,15,02,51,13.40
2012,08,15,02,52,13.40
2012,08,15,02,53,13.40
2012,08,15,02,54,13.40
2012,08,15,02,55,13.40
2012,08,15,02,56,13.40
2012,08,15,02,57,13.40
2012,08,15,02,58,13.40
2012,08,15,02,59,13.40
2012,08,15,03,00,13.40
2012,08,15,03,01,13.40
2012,08,15,03,02,13.40
2012,08,15,03,03,13.40
2012,08,15,03,04,13.40
2012,08,15,03,05,13.40
2012,08,15,03,06,13.40
2012,08,15,03,07,13.40
2012,08,15,03,08,13.40
2012,08,15,03,09,13.40
2012,08,15,03,10,13.40
2012,08,15,03,11,13.40
2012,08,15,03,12,13.40
2012,08,15,03,13,13.40
2012,08,15,03,14,13.40
2012,08,15,03,15,13.40
2012,08,15,03,16,13.40
2012,08,15,03,17,13.40
2012,08,15,03,18,13.40
2012,08,15,03,19,13.40
2012,08,15,03,20,13.40
2012,08,15,03,21,13.40
2012,08,15,03,22,13.40
2012,08,15,03,23,13.40
2012,08,15,03,24,13.30
2012,08,15,03,25,13.30
2012,08,15,03,26,13.30
2012,08,15,03,27,13.30
2012,08,15,03,28,13.30
2012,08,15,03,29,13.30
2012,08,15,03,30,13.30
2012,08,15,03,31,13.30
2012,08,15,03,32,13.30
2012,08,15,03,33,13.30
2012,08,15,03,34,13.30
2012,08,15,03,35,13.30
2012,08,15,03,36,13.30
2012,08,15,03,37,13.30
2012,08,15,03,38,13.30
2012,08,15,03,39,13.30
2012,08,15,03,40,13.30
2012,08,15,03,41,13.30
2012,08,15,03,42,13.30
2012,08,15,03,43,13.30
2012,08,15,03,44,13.30
2012,08,15,03,45,13.30
2012,08,15,03,46,13.30
2012,08,15,03,47,13.30
2012,08,15,03,48,13.30
2012,08,15,03,49,13.30
2012,08,15,03,50,13.30
2012,08,15,03,51,13.30
2012,08,15,03,52,13.30
2012,08,15,03,53,13.30
2012,08,15,03,54,13.30
2012,08,15,03,55,13.30
2012,08,15,03,56,13.30
2012,08,15,03,57,13.30
2012,08,15,03,58,13.40
2012,08,15,03,59,13.40
2012,08,15,04,00,13.40
2012,08,15,04,01,13.40
2012,08,15,04,02,13.40
2012,08,15,04,03,13.40
2012,08,15,04,04,13.40
2012,08,15,04,05,13.40
2012,08,15,04,06,13.40
2012,08,15,04,07,13.40
2012,08,15,04,08,13.40
2012,08,15,04,09,13.40
2012,08,15,04,10,13.30
2012,08,15,04,11,13.30
2012,08,15,04,12,13.30
2012,08,15,04,13,13.30
2012,08,15,04,14,13.30
2012,08,15,04,15,13.30
2012,08,15,04,16,13.30
2012,08,15,04,17,13.20
2012,08,15,04,18,13.20
2012,08,15,04,19,13.20
2012,08,15,04,20,13.20
2012,08,15,04,21,13.20
2012,08,15,04,22,13.20
2012,08,15,04,23,13.20
2012,08,15,04,24,13.10
2012,08,15,04,25,13.10
2012,08,15,04,26,13.10
2012,08,15,04,27,13.10
2012,08,15,04,28,13.10
2012,08,15,04,29,13.10
2012,08,15,04,30,13.10
2012,08,15,04,31,13.10
2012,08,15,04,32,13.10
2012,08,15,04,33,13.10
2012,08,15,04,34,13.10
2012,08,15,04,35,13.10
2012,08,15,04,36,13.10
2012,08,15,04,37,13.10
2012,08,15,04,38,13.10
2012,08,15,04,39,13.10
2012,08,15,04,40,13.10
2012,08,15,04,41,13.10
2012,08,15,04,42,13.00
2012,08,15,04,43,13.00
2012,08,15,04,44,13.00
2012,08,15,04,45,13.00
2012,08,15,04,46,12.90
2012,08,15,04,47,12.90
2012,08,15,04,48,12.90
2012,08,15,04,49,12.90
2012,08,15,04,50,12.90
2012,08,15,04,51,12.90
2012,08,15,04,52,12.80
2012,08,15,04,53,12.80
2012,08,15,04,54,12.80
2012,08,15,04,55,12.80
2012,08,15,04,56,12.80
2012,08,15,04,57,12.80
2012,08,15,04,58,12.80
2012,08,15,04,59,12.80
2012,08,15,05,00,12.80
2012,08,15,05,01,12.80
2012,08,15,05,02,12.80
2012,08,15,05,03,12.70
2012,08,15,05,04,12.70
2012,08,15,05,05,12.70
2012,08,15,05,06,12.70
2012,08,15,05,07,12.70
2012,08,15,05,08,12.70
2012,08,15,05,09,12.70
2012,08,15,05,10,12.70
2012,08,15,05,11,12.70
2012,08,15,05,12,12.70
2012,08,15,05,13,12.70
2012,08,15,05,14,12.70
2012,08,15,05,15,12.80
2012,08,15,05,16,12.80
2012,08,15,05,17,12.80
2012,08,15,05,18,12.80
2012,08,15,05,19,12.80
2012,08,15,05,20,12.80
2012,08,15,05,21,12.80
2012,08,15,05,22,12.80
2012,08,15,05,23,12.80
2012,08,15,05,24,12.80
2012,08,15,05,25,12.80
2012,08,15,05,26,12.80
2012,08,15,05,27,12.80
2012,08,15,05,28,12.80
2012,08,15,05,29,12.80
2012,08,15,05,30,12.80
2012,08,15,05,31,12.80
2012,08,15,05,32,12.80
2012,08,15,05,33,12.80
2012,08,15,05,34,12.80
2012,08,15,05,35,12.80
2012,08,15,05,36,12.70
2012,08,15,05,37,12.70
2012,08,15,05,38,12.70
2012,08,15,05,39,12.70
2012,08,15,05,40,12.70
2012,08,15,05,41,12.70
2012,08,15,05,42,12.70
2012,08,15,05,43,12.70
2012,08,15,05,44,12.70
2012,08,15,05,45,12.70
2012,08,15,05,46,12.70
2012,08,15,05,47,12.70
2012,08,15,05,48,12.70
2012,08,15,05,49,12.70
2012,08,15,05,50,12.70
2012,08,15,05,51,12.70
2012,08,15,05,52,12.80
2012,08,15,05,53,12.80
2012,08,15,05,54,12.80
2012,08,15,05,55,12.80
2012,08,15,05,56,12.80
2012,08,15,05,57,12.80
2012,08,15,05,58,12.80
2012,08,15,05,59,12.80
2012,08,15,06,00,12.80
2012,08,15,06,01,12.80
2012,08,15,06,02,12.80
2012,08,15,06,03,12.90
2012,08,15,06,04,12.80
2012,08,15,06,05,12.80
2012,08,15,06,06,12.80
2012,08,15,06,07,12.80
2012,08,15,06,08,12.80
2012,08,15,06,09,12.80
2012,08,15,06,10,12.80
2012,08,15,06,11,12.80
2012,08,15,06,12,12.80
2012,08,15,06,13,12.80
2012,08,15,06,14,12.80
2012,08,15,06,15,12.80
2012,08,15,06,16,12.80
2012,08,15,06,17,12.80
2012,08,15,06,18,12.80
2012,08,15,06,19,12.70
2012,08,15,06,20,12.70
2012,08,15,06,21,12.70
2012,08,15,06,22,12.80
2012,08,15,06,23,12.80
2012,08,15,06,24,12.80
2012,08,15,06,25,12.80
2012,08,15,06,26,12.80
2012,08,15,06,27,12.80
2012,08,15,06,28,12.90
2012,08,15,06,29,12.90
2012,08,15,06,30,12.90
2012,08,15,06,31,12.90
2012,08,15,06,32,12.90
2012,08,15,06,33,12.90
2012,08,15,06,34,12.90
2012,08,15,06,35,12.90
2012,08,15,06,36,12.90
2012,08,15,06,37,12.90
2012,08,15,06,38,12.90
2012,08,15,06,39,12.90
2012,08,15,06,40,13.00
2012,08,15,06,41,13.00
2012,08,15,06,42,13.00
2012,08,15,06,43,13.10
2012,08,15,06,44,13.10
2012,08,15,06,45,13.10
2012,08,15,06,46,13.10
2012,08,15,06,47,13.10
2012,08,15,06,48,13.20
2012,08,15,06,49,13.20
2012,08,15,06,50,13.20
2012,08,15,06,51,13.30
2012,08,15,06,52,13.30
2012,08,15,06,53,13.30
2012,08,15,06,54,13.30
2012,08,15,06,55,13.40
2012,08,15,06,56,13.40
2012,08,15,06,57,13.40
2012,08,15,06,58,13.40
2012,08,15,06,59,13.50
2012,08,15,07,00,13.50
2012,08,15,07,01,13.50
2012,08,15,07,02,13.60
2012,08,15,07,03,13.60
2012,08,15,07,04,13.60
2012,08,15,07,05,13.70
2012,08,15,07,06,13.70
2012,08,15,07,07,13.80
2012,08,15,07,08,13.80
2012,08,15,07,09,13.90
2012,08,15,07,10,13.90
2012,08,15,07,11,14.00
2012,08,15,07,12,14.10
2012,08,15,07,13,14.10
2012,08,15,07,14,14.10
2012,08,15,07,15,14.10
2012,08,15,07,16,14.20
2012,08,15,07,17,14.20
2012,08,15,07,18,14.20
2012,08,15,07,19,14.20
2012,08,15,07,20,14.30
2012,08,15,07,21,14.30
2012,08,15,07,22,14.30
2012,08,15,07,23,14.40
2012,08,15,07,24,14.50
2012,08,15,07,25,14.50
2012,08,15,07,26,14.60
2012,08,15,07,27,14.70
2012,08,15,07,28,14.80
2012,08,15,07,29,14.90
2012,08,15,07,30,15.00
2012,08,15,07,31,15.00
2012,08,15,07,32,15.00
2012,08,15,07,33,15.00
2012,08,15,07,34,15.00
2012,08,15,07,35,15.10
2012,08,15,07,36,15.20
2012,08,15,07,37,15.20
2012,08,15,07,38,15.30
2012,08,15,07,39,15.30
2012,08,15,07,40,15.30
2012,08,15,07,41,15.40
2012,08,15,07,42,15.50
2012,08,15,07,43,15.50
2012,08,15,07,44,15.60
2012,08,15,07,45,15.70
2012,08,15,07,46,15.70
2012,08,15,07,47,15.80
2012,08,15,07,48,15.90
2012,08,15,07,49,16.00
2012,08,15,07,50,16.10
2012,08,15,07,51,16.20
2012,08,15,07,52,16.30
2012,08,15,07,53,16.40
2012,08,15,07,54,16.50
2012,08,15,07,55,16.60
2012,08,15,07,56,16.60
2012,08,15,07,57,16.70
2012,08,15,07,58,16.70
2012,08,15,07,59,16.80
2012,08,15,08,00,16.90
2012,08,15,08,01,16.90
2012,08,15,08,02,17.00
2012,08,15,08,03,17.10
2012,08,15,08,04,17.20
2012,08,15,08,05,17.20
2012,08,15,08,06,17.30
2012,08,15,08,07,17.40
2012,08,15,08,08,17.40
2012,08,15,08,09,17.50
2012,08,15,08,10,17.60
2012,08,15,08,11,17.70
2012,08,15,08,12,17.80
2012,08,15,08,13,17.90
2012,08,15,08,14,18.00
2012,08,15,08,15,18.10
2012,08,15,08,16,18.20
2012,08,15,08,17,18.20
2012,08,15,08,18,18.30
2012,08,15,08,19,18.40
2012,08,15,08,20,18.50
2012,08,15,08,21,18.60
2012,08,15,08,22,18.60
2012,08,15,08,23,18.70
2012,08,15,08,24,18.80
2012,08,15,08,25,18.90
2012,08,15,08,26,19.00
2012,08,15,08,27,19.00
2012,08,15,08,28,19.10
2012,08,15,08,29,19.20
2012,08,15,08,30,19.30
2012,08,15,08,31,19.40
2012,08,15,08,32,19.50
2012,08,15,08,33,19.60
2012,08,15,08,34,19.70
2012,08,15,08,35,19.80
2012,08,15,08,36,19.90
2012,08,15,08,37,20.00
2012,08,15,08,38,20.00
2012,08,15,08,39,20.10
2012,08,15,08,40,20.10
2012,08,15,08,41,20.10
2012,08,15,08,42,20.20
2012,08,15,08,43,20.20
2012,08,15,08,44,20.30
2012,08,15,08,45,20.30
2012,08,15,08,46,20.30
2012,08,15,08,47,20.30
2012,08,15,08,48,20.20
2012,08,15,08,49,20.20
2012,08,15,08,50,20.10
2012,08,15,08,51,20.00
2012,08,15,08,52,20.00
2012,08,15,08,53,20.00
2012,08,15,08,54,20.10
2012,08,15,08,55,20.10
2012,08,15,08,56,20.20
2012,08,15,08,57,20.20
2012,08,15,08,58,20.20
2012,08,15,08,59,20.20
2012,08,15,09,00,20.20
2012,08,15,09,01,20.20
2012,08,15,09,02,20.10
2012,08,15,09,03,20.00
2012,08,15,09,04,19.80
2012,08,15,09,05,19.50
2012,08,15,09,06,19.20
2012,08,15,09,07,18.90
2012,08,15,09,08,18.60
2012,08,15,09,09,18.50
2012,08,15,09,10,18.40
2012,08,15,09,11,18.30
2012,08,15,09,12,18.30
2012,08,15,09,13,18.30
2012,08,15,09,14,18.40
2012,08,15,09,15,18.60
2012,08,15,09,16,18.70
2012,08,15,09,17,18.80
2012,08,15,09,18,18.90
2012,08,15,09,19,19.10
2012,08,15,09,20,19.30
2012,08,15,09,21,19.50
2012,08,15,09,22,19.70
2012,08,15,09,23,20.00
2012,08,15,09,24,20.20
2012,08,15,09,25,20.30
2012,08,15,09,26,20.50
2012,08,15,09,27,20.70
2012,08,15,09,28,20.80
2012,08,15,09,29,21.10
2012,08,15,09,30,21.30
2012,08,15,09,31,21.50
2012,08,15,09,32,21.60
2012,08,15,09,33,21.70
2012,08,15,09,34,21.80
2012,08,15,09,35,22.00
2012,08,15,09,36,22.30
2012,08,15,09,37,22.50
2012,08,15,09,38,22.70
2012,08,15,09,39,22.90
2012,08,15,09,40,23.10
2012,08,15,09,41,23.30
2012,08,15,09,42,23.40
2012,08,15,09,43,23.50
2012,08,15,09,44,23.70
2012,08,15,09,45,23.80
2012,08,15,09,46,23.90
2012,08,15,09,47,24.00
2012,08,15,09,48,24.10
2012,08,15,09,49,24.20
2012,08,15,09,50,24.20
2012,08,15,09,51,24.30
2012,08,15,09,52,24.40
2012,08,15,09,53,24.50
2012,08,15,09,54,24.60
2012,08,15,09,55,24.70
2012,08,15,09,56,24.80
2012,08,15,09,57,24.80
2012,08,15,09,58,24.90
2012,08,15,09,59,24.90
2012,08,15,10,00,24.90
2012,08,15,10,01,24.90
2012,08,15,10,02,24.90
2012,08,15,10,03,24.90
2012,08,15,10,04,24.90
2012,08,15,10,05,25.00
2012,08,15,10,06,25.10
2012,08,15,10,07,25.10
2012,08,15,10,08,25.20
2012,08,15,10,09,25.20
2012,08,15,10,10,25.30
2012,08,15,10,11,25.30
2012,08,15,10,12,25.30
2012,08,15,10,13,25.40
2012,08,15,10,14,25.40
2012,08,15,10,15,25.40
2012,08,15,10,16,25.40
2012,08,15,10,17,25.40
2012,08,15,10,18,25.40
2012,08,15,10,19,25.40
2012,08,15,10,20,25.40
2012,08,15,10,21,25.50
2012,08,15,10,22,25.50
2012,08,15,10,23,25.60
2012,08,15,10,24,25.60
2012,08,15,10,25,25.70
2012,08,15,10,26,25.80
2012,08,15,10,27,25.80
2012,08,15,10,28,25.90
2012,08,15,10,29,25.90
2012,08,15,10,30,25.90
2012,08,15,10,31,25.90
2012,08,15,10,32,25.90
2012,08,15,10,33,25.90
2012,08,15,10,34,25.90
2012,08,15,10,35,26.00
2012,08,15,10,36,26.00
2012,08,15,10,37,26.10
2012,08,15,10,38,26.20
2012,08,15,10,39,26.30
2012,08,15,10,40,26.30
2012,08,15,10,41,26.30
2012,08,15,10,42,26.40
2012,08,15,10,43,26.40
2012,08,15,10,44,26.50
2012,08,15,10,45,26.60
2012,08,15,10,46,26.60
2012,08,15,10,47,26.60
2012,08,15,10,48,26.60
2012,08,15,10,49,26.50
2012,08,15,10,50,26.30
2012,08,15,10,51,26.30
2012,08,15,10,52,26.30
2012,08,15,10,53,26.20
2012,08,15,10,54,26.20
2012,08,15,10,55,26.20
2012,08,15,10,56,26.20
2012,08,15,10,57,26.30
2012,08,15,10,58,26.30
2012,08,15,10,59,26.40
2012,08,15,11,00,26.40
2012,08,15,11,01,26.40
2012,08,15,11,02,26.40
2012,08,15,11,03,26.30
2012,08,15,11,04,26.40
2012,08,15,11,05,26.30
2012,08,15,11,06,26.40
2012,08,15,11,07,26.40
2012,08,15,11,08,26.40
2012,08,15,11,09,26.40
2012,08,15,11,10,26.30
2012,08,15,11,11,26.40
2012,08,15,11,12,26.40
2012,08,15,11,13,26.30
2012,08,15,11,14,26.30
2012,08,15,11,15,26.30
2012,08,15,11,16,26.40
2012,08,15,11,17,26.40
2012,08,15,11,18,26.50
2012,08,15,11,19,26.50
2012,08,15,11,20,26.60
2012,08,15,11,21,26.60
2012,08,15,11,22,26.70
2012,08,15,11,23,26.70
2012,08,15,11,24,26.70
2012,08,15,11,25,26.80
2012,08,15,11,26,26.80
2012,08,15,11,27,26.90
2012,08,15,11,28,26.80
2012,08,15,11,29,26.90
2012,08,15,11,30,26.90
2012,08,15,11,31,26.90
2012,08,15,11,32,26.80
2012,08,15,11,33,26.70
2012,08,15,11,34,26.60
2012,08,15,11,35,26.60
2012,08,15,11,36,26.60
2012,08,15,11,37,26.70
2012,08,15,11,38,26.70
2012,08,15,11,39,26.80
2012,08,15,11,40,26.70
2012,08,15,11,41,26.70
2012,08,15,11,42,26.60
2012,08,15,11,43,26.60
2012,08,15,11,44,26.50
2012,08,15,11,45,26.50
2012,08,15,11,46,26.50
2012,08,15,11,47,26.60
2012,08,15,11,48,26.70
2012,08,15,11,49,26.70
2012,08,15,11,50,26.80
2012,08,15,11,51,26.80
2012,08,15,11,52,26.90
2012,08,15,11,53,27.00
2012,08,15,11,54,27.20
2012,08,15,11,55,27.20
2012,08,15,11,56,27.30
2012,08,15,11,57,27.30
2012,08,15,11,58,27.40
2012,08,15,11,59,27.40
2012,08,15,12,00,27.40
2012,08,15,12,01,27.40
2012,08,15,12,02,27.50
2012,08,15,12,03,27.50
2012,08,15,12,04,27.60
2012,08,15,12,05,27.60
2012,08,15,12,06,27.60
2012,08,15,12,07,27.50
2012,08,15,12,08,27.40
2012,08,15,12,09,27.30
2012,08,15,12,10,27.30
2012,08,15,12,11,27.30
2012,08,15,12,12,27.30
2012,08,15,12,13,27.40
2012,08,15,12,14,27.30
2012,08,15,12,15,27.30
2012,08,15,12,16,27.20
2012,08,15,12,17,27.20
2012,08,15,12,18,27.20
2012,08,15,12,19,27.20
2012,08,15,12,20,27.10
2012,08,15,12,21,27.10
2012,08,15,12,22,27.10
2012,08,15,12,23,27.10
2012,08,15,12,24,27.20
2012,08,15,12,25,27.20
2012,08,15,12,26,27.20
2012,08,15,12,27,27.30
2012,08,15,12,28,27.40
2012,08,15,12,29,27.50
2012,08,15,12,30,27.60
2012,08,15,12,31,27.70
2012,08,15,12,32,27.70
2012,08,15,12,33,27.70
2012,08,15,12,34,27.60
2012,08,15,12,35,27.50
2012,08,15,12,36,27.40
2012,08,15,12,37,27.40
2012,08,15,12,38,27.40
2012,08,15,12,39,27.40
2012,08,15,12,40,27.40
2012,08,15,12,41,27.30
2012,08,15,12,42,27.30
2012,08,15,12,43,27.30
2012,08,15,12,44,27.30
2012,08,15,12,45,27.30
2012,08,15,12,46,27.30
2012,08,15,12,47,27.20
2012,08,15,12,48,27.20
2012,08,15,12,49,27.30
2012,08,15,12,50,27.30
2012,08,15,12,51,27.30
2012,08,15,12,52,27.30
2012,08,15,12,53,27.30
2012,08,15,12,54,27.40
2012,08,15,12,55,27.40
2012,08,15,12,56,27.50
2012,08,15,12,57,27.60
2012,08,15,12,58,27.70
2012,08,15,12,59,27.80
2012,08,15,13,00,27.80
2012,08,15,13,01,27.80
2012,08,15,13,02,27.80
2012,08,15,13,03,27.80
2012,08,15,13,04,27.80
2012,08,15,13,05,27.80
2012,08,15,13,06,27.70
2012,08,15,13,07,27.70
2012,08,15,13,08,27.70
2012,08,15,13,09,27.70
2012,08,15,13,10,27.70
2012,08,15,13,11,27.70
2012,08,15,13,12,27.70
2012,08,15,13,13,27.70
2012,08,15,13,14,27.70
2012,08,15,13,15,27.70
2012,08,15,13,16,27.80
2012,08,15,13,17,27.90
2012,08,15,13,18,27.90
2012,08,15,13,19,28.00
2012,08,15,13,20,28.10
2012,08,15,13,21,28.20
2012,08,15,13,22,28.30
2012,08,15,13,23,28.50
2012,08,15,13,24,28.60
2012,08,15,13,25,28.70
2012,08,15,13,26,28.60
2012,08,15,13,27,28.60
2012,08,15,13,28,28.50
2012,08,15,13,29,28.40
2012,08,15,13,30,28.50
2012,08,15,13,31,28.50
2012,08,15,13,32,28.60
2012,08,15,13,33,28.60
2012,08,15,13,34,28.60
2012,08,15,13,35,28.60
2012,08,15,13,36,28.70
2012,08,15,13,37,28.70
2012,08,15,13,38,28.80
2012,08,15,13,39,28.90
2012,08,15,13,40,29.00
2012,08,15,13,41,29.10
2012,08,15,13,42,29.10
2012,08,15,13,43,29.20
2012,08,15,13,44,29.20
2012,08,15,13,45,29.10
2012,08,15,13,46,29.10
2012,08,15,13,47,29.10
2012,08,15,13,48,29.00
2012,08,15,13,49,29.00
2012,08,15,13,50,29.00
2012,08,15,13,51,29.00
2012,08,15,13,52,29.00
2012,08,15,13,53,28.90
2012,08,15,13,54,28.90
2012,08,15,13,55,28.80
2012,08,15,13,56,28.80
2012,08,15,13,57,28.80
2012,08,15,13,58,28.80
2012,08,15,13,59,28.90
2012,08,15,14,00,28.90
2012,08,15,14,01,28.90
2012,08,15,14,02,28.90
2012,08,15,14,03,28.90
2012,08,15,14,04,28.90
2012,08,15,14,05,29.00
2012,08,15,14,06,29.00
2012,08,15,14,07,29.00
2012,08,15,14,08,29.00
2012,08,15,14,09,28.90
2012,08,15,14,10,28.90
2012,08,15,14,11,29.00
2012,08,15,14,12,29.10
2012,08,15,14,13,29.10
2012,08,15,14,14,29.20
2012,08,15,14,15,29.20
2012,08,15,14,16,29.20
2012,08,15,14,17,29.20
2012,08,15,14,18,29.10
2012,08,15,14,19,29.10
2012,08,15,14,20,29.10
2012,08,15,14,21,29.20
2012,08,15,14,22,29.20
2012,08,15,14,23,29.30
2012,08,15,14,24,29.30
2012,08,15,14,25,29.20
2012,08,15,14,26,29.20
2012,08,15,14,27,29.20
2012,08,15,14,28,29.20
2012,08,15,14,29,29.20
2012,08,15,14,30,29.20
2012,08,15,14,31,29.20
2012,08,15,14,32,29.20
2012,08,15,14,33,29.30
2012,08,15,14,34,29.40
2012,08,15,14,35,29.50
2012,08,15,14,36,29.50
2012,08,15,14,37,29.60
2012,08,15,14,38,29.60
2012,08,15,14,39,29.70
2012,08,15,14,40,29.80
2012,08,15,14,41,29.80
2012,08,15,14,42,29.80
2012,08,15,14,43,29.80
2012,08,15,14,44,29.80
2012,08,15,14,45,29.80
2012,08,15,14,46,29.80
2012,08,15,14,47,29.90
2012,08,15,14,48,29.90
2012,08,15,14,49,29.90
2012,08,15,14,50,29.90
2012,08,15,14,51,29.90
2012,08,15,14,52,29.90
2012,08,15,14,53,29.80
2012,08,15,14,54,29.80
2012,08,15,14,55,29.80
2012,08,15,14,56,29.80
2012,08,15,14,57,29.90
2012,08,15,14,58,29.90
2012,08,15,14,59,29.90
2012,08,15,15,00,30.00
2012,08,15,15,01,30.00
2012,08,15,15,02,29.90
2012,08,15,15,03,29.80
2012,08,15,15,04,29.80
2012,08,15,15,05,29.90
2012,08,15,15,06,29.90
2012,08,15,15,07,29.90
2012,08,15,15,08,29.90
2012,08,15,15,09,30.00
2012,08,15,15,10,30.10
2012,08,15,15,11,30.10
2012,08,15,15,12,30.20
2012,08,15,15,13,30.20
2012,08,15,15,14,30.20
2012,08,15,15,15,30.20
2012,08,15,15,16,30.20
2012,08,15,15,17,30.20
2012,08,15,15,18,30.20
2012,08,15,15,19,30.20
2012,08,15,15,20,30.10
2012,08,15,15,21,30.00
2012,08,15,15,22,30.00
2012,08,15,15,23,30.10
2012,08,15,15,24,30.10
2012,08,15,15,25,30.20
2012,08,15,15,26,30.30
2012,08,15,15,27,30.30
2012,08,15,15,28,30.40
2012,08,15,15,29,30.40
2012,08,15,15,30,30.40
2012,08,15,15,31,30.40
2012,08,15,15,32,30.40
2012,08,15,15,33,30.40
2012,08,15,15,34,30.40
2012,08,15,15,35,30.40
2012,08,15,15,36,30.40
2012,08,15,15,37,30.30
2012,08,15,15,38,30.30
2012,08,15,15,39,30.20
2012,08,15,15,40,30.00
2012,08,15,15,41,30.00
2012,08,15,15,42,30.10
2012,08,15,15,43,30.10
2012,08,15,15,44,30.00
2012,08,15,15,45,30.00
2012,08,15,15,46,30.00
2012,08,15,15,47,30.00
2012,08,15,15,48,29.90
2012,08,15,15,49,29.80
2012,08,15,15,50,29.70
2012,08,15,15,51,29.70
2012,08,15,15,52,29.60
2012,08,15,15,53,29.60
2012,08,15,15,54,29.60
2012,08,15,15,55,29.60
2012,08,15,15,56,29.50
2012,08,15,15,57,29.50
2012,08,15,15,58,29.50
2012,08,15,15,59,29.50
2012,08,15,16,00,29.60
2012,08,15,16,01,29.70
2012,08,15,16,02,29.70
2012,08,15,16,03,29.80
2012,08,15,16,04,29.90
2012,08,15,16,05,30.10
2012,08,15,16,06,30.20
2012,08,15,16,07,30.20
2012,08,15,16,08,30.10
2012,08,15,16,09,30.10
2012,08,15,16,10,30.00
2012,08,15,16,11,29.90
2012,08,15,16,12,29.80
2012,08,15,16,13,29.80
2012,08,15,16,14,29.80
2012,08,15,16,15,29.70
2012,08,15,16,16,29.70
2012,08,15,16,17,29.70
2012,08,15,16,18,29.80
2012,08,15,16,19,29.80
2012,08,15,16,20,29.80
2012,08,15,16,21,29.80
2012,08,15,16,22,29.80
2012,08,15,16,23,29.80
2012,08,15,16,24,29.80
2012,08,15,16,25,29.80
2012,08,15,16,26,29.70
2012,08,15,16,27,29.70
2012,08,15,16,28,29.70
2012,08,15,16,29,29.70
2012,08,15,16,30,29.70
2012,08,15,16,31,29.70
2012,08,15,16,32,29.70
2012,08,15,16,33,29.60
2012,08,15,16,34,29.60
2012,08,15,16,35,29.60
2012,08,15,16,36,29.70
2012,08,15,16,37,29.90
2012,08,15,16,38,30.00
2012,08,15,16,39,30.10
2012,08,15,16,40,30.10
2012,08,15,16,41,30.10
2012,08,15,16,42,30.00
2012,08,15,16,43,29.90
2012,08,15,16,44,29.80
2012,08,15,16,45,29.80
2012,08,15,16,46,29.70
2012,08,15,16,47,29.70
2012,08,15,16,48,29.70
2012,08,15,16,49,29.70
2012,08,15,16,50,29.70
2012,08,15,16,51,29.60
2012,08,15,16,52,29.60
2012,08,15,16,53,29.60
2012,08,15,16,54,29.50
2012,08,15,16,55,29.50
2012,08,15,16,56,29.50
2012,08,15,16,57,29.60
2012,08,15,16,58,29.50
2012,08,15,16,59,29.50
2012,08,15,17,00,29.60
2012,08,15,17,01,29.60
2012,08,15,17,02,29.60
2012,08,15,17,03,29.60
2012,08,15,17,04,29.60
2012,08,15,17,05,29.60
2012,08,15,17,06,29.60
2012,08,15,17,07,29.60
2012,08,15,17,08,29.70
2012,08,15,17,09,29.70
2012,08,15,17,10,29.70
2012,08,15,17,11,29.80
2012,08,15,17,12,29.90
2012,08,15,17,13,29.90
2012,08,15,17,14,29.90
2012,08,15,17,15,29.90
2012,08,15,17,16,29.90
2012,08,15,17,17,29.80
2012,08,15,17,18,29.80
2012,08,15,17,19,29.80